Starlink 3788

operational
NORAD ID: 52271 Int'l Des: 2022-041 Owner: SPXS Country: US Constellation: starlink
LEOCIRCULAR

关于 Starlink 3788

正在加载描述...

实时位置

正在加载3D地球...

即将过境

高度历史

Altitude vs Time

uPlot chart will show altitude changes over time

两行轨道根数

1 52271U 22041L 25296.57290147 .00001033 00000-0 83003-4 0 9990
2 52271 53.2193 4.6611 0001447 91.9504 268.1654 15.08843692193667
Epoch: Oct 23, 2025 • Age: 28 hours

当前状态

高度 540.8 km
速度 7.59 km/s
星下点 -1.90°S, 116.2°W
发射日期 Apr 21, 2022
运行时间 3.5 years
类型 internet

技术详情

分类 Payload
质量 297.00 kg
干质量 275.00 kg
总质量 297.00 kg
长度 0.20 m
直径 2.80 m
跨度 9.00 m
形状 Box + pan
制造商 SPXS
平台类型 Starlink
阶段状态 In Orbit
所有者/国家 SPXS/US

大型星座

Loading constellations...